When you browse on this site, cookies collect data to enhance your experience and personalize the content and advertising you see.
Visit our Privacy Policy to learn more. By continuing to use the site, you agree to this use of cookies and data.
  • In United Kingdom
  • List of Countries
  • For 7 days
  • Water Temperature
  • Satellite Maps
  • Weather Map
  • Weather Widgets
  • user-avatar
    Login

    Hourly Weather Neiva

    Today, 27 June, Thursday

    Time Temperature Precipitation Wind Pressure Humidity
    00:00 +26°C° 0 mm 2 mps 721 mmHg 71%
    01:00 +25°C° 0 mm 1 mps 721 mmHg 72%
    02:00 +25°C° 0 mm 1 mps 720 mmHg 73%
    03:00 +25°C° 0 mm 1 mps 720 mmHg 74%
    04:00 +25°C° 0 mm 1 mps 720 mmHg 75%
    05:00 +25°C° 0 mm 1 mps 720 mmHg 74%
    06:00 +26°C° 0 mm 1 mps 721 mmHg 73%
    07:00 +26°C° 0 mm 1 mps 721 mmHg 72%
    08:00 +28°C° 0 mm 1 mps 721 mmHg 66%
    09:00 +30°C° 0 mm 2 mps 721 mmHg 60%
    10:00 +32°C° 0 mm 2 mps 721 mmHg 53%
    11:00 +34°C° 0 mm 2 mps 721 mmHg 49%
    12:00 +35°C° 0 mm 2 mps 720 mmHg 45%
    13:00 +36°C° 0 mm 2 mps 720 mmHg 41%
    14:00 +36°C° 0 mm 2 mps 719 mmHg 42%
    15:00 +36°C° 0 mm 2 mps 718 mmHg 43%
    16:00 +36°C° 0 mm 2 mps 717 mmHg 43%
    17:00 +34°C° 0 mm 2 mps 718 mmHg 50%
    18:00 +31°C° 0 mm 2 mps 719 mmHg 56%
    19:00 +29°C° 0 mm 2 mps 719 mmHg 63%
    20:00 +28°C° 0.1 mm 2 mps 720 mmHg 65%
    21:00 +27°C° 0.1 mm 2 mps 720 mmHg 67%
    22:00 +27°C° 0.1 mm 2 mps 721 mmHg 69%
    23:00 +26°C° 0 mm 1 mps 721 mmHg 69%

    Tomorrow, 28 June, Friday

    Time Temperature Precipitation Wind Pressure Humidity
    00:00 +26°C° 0 mm 1 mps 721 mmHg 69%
    01:00 +25°C° 0 mm 1 mps 721 mmHg 69%
    02:00 +25°C° 0 mm 1 mps 720 mmHg 70%
    03:00 +25°C° 0 mm 1 mps 720 mmHg 71%
    04:00 +25°C° 0 mm 1 mps 720 mmHg 72%
    05:00 +25°C° 0 mm 1 mps 720 mmHg 72%
    06:00 +26°C° 0 mm 1 mps 721 mmHg 73%
    07:00 +26°C° 0 mm 1 mps 721 mmHg 74%
    08:00 +27°C° 0 mm 2 mps 721 mmHg 69%
    09:00 +29°C° 0 mm 2 mps 722 mmHg 63%
    10:00 +31°C° 0 mm 3 mps 722 mmHg 58%
    11:00 +31°C° 0.3 mm 3 mps 722 mmHg 57%
    12:00 +33°C° 0.3 mm 3 mps 721 mmHg 56%
    13:00 +34°C° 0.3 mm 4 mps 720 mmHg 54%
    14:00 +34°C° 0.1 mm 4 mps 719 mmHg 54%
    15:00 +34°C° 0.1 mm 3 mps 719 mmHg 53%
    16:00 +34°C° 0.1 mm 3 mps 718 mmHg 53%
    17:00 +31°C° 0.1 mm 3 mps 719 mmHg 58%
    18:00 +30°C° 0.1 mm 2 mps 719 mmHg 64%
    19:00 +28°C° 0.1 mm 2 mps 719 mmHg 69%
    20:00 +27°C° 0 mm 2 mps 720 mmHg 69%
    21:00 +27°C° 0 mm 2 mps 721 mmHg 68%
    22:00 +26°C° 0 mm 2 mps 721 mmHg 68%
    23:00 +26°C° 0 mm 2 mps 721 mmHg 68%

    Day after tomorrow, 29 June, Saturday

    Time Temperature Precipitation Wind Pressure Humidity
    00:00 +26°C° 0 mm 1 mps 721 mmHg 69%
    01:00 +26°C° 0 mm 1 mps 720 mmHg 70%
    02:00 +26°C° 0 mm 1 mps 720 mmHg 71%
    03:00 +25°C° 0 mm 1 mps 720 mmHg 71%
    04:00 +25°C° 0 mm 1 mps 720 mmHg 72%
    05:00 +26°C° 0 mm 1 mps 720 mmHg 72%
    06:00 +26°C° 0 mm 1 mps 721 mmHg 71%
    07:00 +26°C° 0 mm 1 mps 721 mmHg 71%
    08:00 +28°C° 0 mm 1 mps 721 mmHg 64%
    09:00 +30°C° 0 mm 1 mps 722 mmHg 58%
    10:00 +32°C° 0 mm 1 mps 722 mmHg 51%
    11:00 +34°C° 0.1 mm 2 mps 721 mmHg 47%
    12:00 +36°C° 0.1 mm 2 mps 720 mmHg 44%
    13:00 +37°C° 0.1 mm 2 mps 720 mmHg 40%
    14:00 +37°C° 0.1 mm 3 mps 719 mmHg 41%
    15:00 +36°C° 0.1 mm 3 mps 719 mmHg 43%
    16:00 +36°C° 0.1 mm 3 mps 718 mmHg 44%
    17:00 +34°C° 0.1 mm 3 mps 719 mmHg 51%
    18:00 +31°C° 0.1 mm 2 mps 719 mmHg 58%
    19:00 +28°C° 0.1 mm 2 mps 720 mmHg 65%
    20:00 +28°C° 0.1 mm 2 mps 720 mmHg 65%
    21:00 +28°C° 0.1 mm 2 mps 721 mmHg 65%
    22:00 +28°C° 0.1 mm 1 mps 722 mmHg 66%
    23:00 +27°C° 0.4 mm 1 mps 721 mmHg 71%

    30 June, Sunday

    Time Temperature Precipitation Wind Pressure Humidity
    00:00 +26°C° 0.4 mm 1 mps 721 mmHg 77%
    01:00 +26°C° 0.4 mm 1 mps 721 mmHg 83%
    02:00 +25°C° 0.8 mm 1 mps 720 mmHg 86%
    03:00 +25°C° 0.8 mm 1 mps 720 mmHg 89%
    04:00 +25°C° 0.8 mm 1 mps 720 mmHg 92%
    05:00 +23°C° 0.2 mm 0 mps 720 mmHg 91%
    06:00 +23°C° 0.2 mm 0 mps 721 mmHg 91%
    07:00 +23°C° 0.2 mm 0 mps 721 mmHg 90%
    08:00 +25°C° 0.3 mm 1 mps 721 mmHg 90%
    09:00 +25°C° 0.3 mm 1 mps 722 mmHg 89%
    10:00 +25°C° 0.3 mm 1 mps 722 mmHg 89%
    11:00 +26°C° 0.3 mm 2 mps 721 mmHg 84%
    12:00 +27°C° 0.3 mm 2 mps 721 mmHg 79%
    13:00 +28°C° 0.3 mm 2 mps 720 mmHg 74%
    14:00 +29°C° 0.2 mm 2 mps 720 mmHg 69%
    15:00 +30°C° 0.2 mm 2 mps 719 mmHg 64%
    16:00 +31°C° 0.2 mm 2 mps 719 mmHg 60%
    17:00 +30°C° 0.1 mm 2 mps 719 mmHg 64%
    18:00 +29°C° 0.1 mm 1 mps 720 mmHg 67%
    19:00 +27°C° 0.1 mm 1 mps 720 mmHg 71%
    20:00 +27°C° 0.1 mm 1 mps 721 mmHg 71%
    21:00 +27°C° 0.1 mm 1 mps 721 mmHg 70%
    22:00 +27°C° 0.1 mm 1 mps 722 mmHg 70%
    23:00 +27°C° 0.1 mm 1 mps 721 mmHg 72%

    1 July, Monday

    Time Temperature Precipitation Wind Pressure Humidity
    00:00 +26°C° 0.1 mm 2 mps 721 mmHg 74%
    01:00 +26°C° 0.1 mm 2 mps 721 mmHg 76%
    02:00 +25°C° 0 mm 1 mps 721 mmHg 77%
    03:00 +25°C° 0 mm 1 mps 721 mmHg 78%
    04:00 +25°C° 0 mm 1 mps 721 mmHg 78%
    05:00 +25°C° 0.1 mm 1 mps 721 mmHg 79%
    06:00 +26°C° 0.1 mm 1 mps 721 mmHg 79%
    07:00 +26°C° 0.1 mm 1 mps 722 mmHg 80%
    08:00 +26°C° 0.1 mm 1 mps 722 mmHg 79%
    09:00 +27°C° 0.1 mm 1 mps 722 mmHg 77%
    10:00 +27°C° 0.1 mm 1 mps 723 mmHg 76%
    11:00 +28°C° 0.4 mm 1 mps 722 mmHg 74%
    12:00 +28°C° 0.4 mm 1 mps 722 mmHg 72%
    13:00 +29°C° 0.4 mm 1 mps 721 mmHg 70%
    14:00 +29°C° 0.5 mm 1 mps 721 mmHg 70%
    15:00 +29°C° 0.5 mm 1 mps 720 mmHg 69%
    16:00 +29°C° 0.5 mm 1 mps 720 mmHg 68%
    17:00 +28°C° 0.3 mm 1 mps 720 mmHg 72%
    18:00 +27°C° 0.3 mm 1 mps 721 mmHg 75%
    19:00 +26°C° 0.3 mm 2 mps 721 mmHg 79%
    20:00 +26°C° 0.5 mm 2 mps 721 mmHg 81%
    21:00 +26°C° 0.5 mm 2 mps 722 mmHg 84%
    22:00 +25°C° 0.5 mm 2 mps 722 mmHg 86%
    23:00 +25°C° 0.2 mm 2 mps 722 mmHg 87%

    2 July, Tuesday

    Time Temperature Precipitation Wind Pressure Humidity
    00:00 +25°C° 0.2 mm 1 mps 721 mmHg 88%
    01:00 +25°C° 0.2 mm 1 mps 721 mmHg 89%
    02:00 +24°C° 0 mm 1 mps 721 mmHg 89%
    03:00 +24°C° 0 mm 1 mps 721 mmHg 89%
    04:00 +24°C° 0 mm 1 mps 720 mmHg 88%
    05:00 +25°C° 0 mm 1 mps 721 mmHg 87%
    06:00 +25°C° 0 mm 1 mps 721 mmHg 87%
    07:00 +25°C° 0 mm 1 mps 721 mmHg 86%
    08:00 +25°C° 0.3 mm 1 mps 722 mmHg 85%
    09:00 +26°C° 0.3 mm 2 mps 722 mmHg 85%
    10:00 +26°C° 0.3 mm 2 mps 722 mmHg 84%
    11:00 +26°C° 0.3 mm 2 mps 722 mmHg 84%
    12:00 +26°C° 0.3 mm 2 mps 721 mmHg 85%
    13:00 +26°C° 0.3 mm 2 mps 721 mmHg 85%
    14:00 +26°C° 0.3 mm 2 mps 721 mmHg 84%
    15:00 +26°C° 0.3 mm 3 mps 720 mmHg 83%
    16:00 +26°C° 0.3 mm 3 mps 720 mmHg 83%
    17:00 +26°C° 0.1 mm 3 mps 720 mmHg 82%
    18:00 +26°C° 0.1 mm 3 mps 721 mmHg 82%
    19:00 +25°C° 0.1 mm 2 mps 721 mmHg 82%
    20:00 +25°C° 0 mm 2 mps 721 mmHg 81%
    21:00 +25°C° 0 mm 2 mps 722 mmHg 81%
    22:00 +25°C° 0 mm 2 mps 722 mmHg 80%
    23:00 +25°C° 0 mm 1 mps 722 mmHg 80%
    Show more